Location: Sunnyvale
(37.3814°N, 122.0645°W)
Time: 15:51:53
(UTC-08:00)

BlueWalker 3 - Pass Details

Date: 26 December 2025
Orbit: 452 x 463 km, 53.2° (Epoch: 13 January)

Event Time Altitude Azimuth Distance (km) Brightness Sun altitude
Exits shadow 05:48:19 14° 358° (N) 1,343 3.9 -17.8°
Drops below altitude 10° 05:49:27 10° 15° (NNE) 1,593 4.5 -17.6°
Sets 05:52:10 0° 36° (NE) 2,472 5.7 -17.1°
